| time (UTC) | temp F | wind direction | speed knots | gust knots | rain 1hr in | rain 24hr in | rain mn in | humidity % | barometer mb |
| 20260504185534 | 56 | 45 | 0.9 | 1.7 | 0.00 | 0.12 | 0.00 | 46 | 1017.0 |
| 20260504184534 | 56 | 30 | 1.7 | 5.2 | 0.00 | 0.12 | 0.00 | 46 | 1017.0 |
| 20260504183534 | 56 | 47 | 2.6 | 5.2 | 0.00 | 0.12 | 0.00 | 46 | 1017.0 |
| 20260504182534 | 56 | 42 | 1.7 | 2.6 | 0.00 | 0.12 | 0.00 | 46 | 1017.0 |
| 20260504181534 | 56 | 56 | 2.6 | 6.1 | 0.00 | 0.12 | 0.00 | 47 | 1017.0 |
| 20260504180536 | 57 | 50 | 1.7 | 4.3 | 0.00 | 0.12 | 0.00 | 47 | 1016.0 |
| 20260504175535 | 57 | 32 | 1.7 | 6.1 | 0.00 | 0.12 | 0.00 | 46 | 1015.0 |
| 20260504174535 | 57 | 18 | 1.7 | 2.6 | 0.00 | 0.12 | 0.00 | 46 | 1015.0 |
| 20260504173535 | 57 | 14 | 4.3 | 7.0 | 0.00 | 0.12 | 0.00 | 46 | 1015.0 |
| 20260504172535 | 57 | 343 | 2.6 | 5.2 | 0.00 | 0.12 | 0.00 | 46 | 1015.0 |
| 20260504171535 | 57 | 63 | 1.7 | 1.7 | 0.00 | 0.12 | 0.00 | 46 | 1015.0 |
| 20260504170535 | 57 | 1 | 2.6 | 4.3 | 0.00 | 0.12 | 0.00 | 46 | 1015.0 |
| 20260504150534 | 61 | 65 | 5.2 | 7.0 | 0.00 | 0.12 | 0.00 | 47 | 1011.0 |
| 20260504140535 | 63 | 41 | 2.6 | 2.6 | 0.00 | 0.12 | 0.12 | 47 | 1010.0 |
| 20260504130535 | 66 | 338 | 2.6 | 2.6 | 0.00 | 0.12 | 0.12 | 46 | 1009.0 |
| 20260504110534 | 72 | 131 | 2.6 | 5.2 | 0.00 | 0.12 | 0.12 | 46 | 1003.0 |
| 20260504100535 | 72 | 292 | 0.0 | 0.0 | 0.00 | 0.12 | 0.12 | 52 | 1002.0 |
| 20260504081535 | 76 | 147 | 4.3 | 6.1 | 0.00 | 0.12 | 0.12 | 40 | 1000.0 |
| 20260504080535 | 76 | 291 | 2.6 | 6.1 | 0.00 | 0.12 | 0.12 | 39 | 999.0 |
| 20260504050534 | 83 | 157 | 7.8 | 13.0 | 0.00 | 0.12 | 0.12 | 52 | 997.0 |
| 20260504045534 | 84 | 189 | 7.0 | 10.4 | 0.00 | 0.12 | 0.12 | 51 | 996.0 |
| 20260504044534 | 85 | 221 | 4.3 | 6.1 | 0.00 | 0.12 | 0.12 | 50 | 996.0 |
| 20260504043534 | 85 | 240 | 5.2 | 8.7 | 0.00 | 0.12 | 0.12 | 50 | 997.0 |
| 20260504042534 | 85 | 201 | 6.1 | 10.4 | 0.00 | 0.12 | 0.12 | 50 | 997.0 |
| 20260504041534 | 86 | 201 | 4.3 | 5.2 | 0.00 | 0.12 | 0.12 | 48 | 997.0 |
| 20260504040534 | 86 | 147 | 4.3 | 5.2 | 0.00 | 0.12 | 0.12 | 49 | 997.0 |
| 20260504035534 | 86 | 140 | 5.2 | 6.1 | 0.00 | 0.12 | 0.12 | 48 | 997.0 |
| 20260504034534 | 85 | 132 | 6.1 | 8.7 | 0.00 | 0.12 | 0.12 | 49 | 997.0 |
| 20260504033534 | 86 | 205 | 5.2 | 7.8 | 0.00 | 0.12 | 0.12 | 50 | 997.0 |
| 20260504032536 | 86 | 151 | 5.2 | 7.0 | 0.00 | 0.12 | 0.12 | 51 | 998.0 |
| 20260504031536 | 86 | 150 | 6.1 | 7.8 | 0.00 | 0.12 | 0.12 | 51 | 998.0 |
| 20260504030535 | 88 | 176 | 5.2 | 6.1 | 0.00 | 0.12 | 0.12 | 50 | 998.0 |
| 20260504025535 | 89 | 128 | 2.6 | 4.3 | 0.00 | 0.12 | 0.12 | 50 | 999.0 |
| 20260504024535 | 89 | 215 | 5.2 | 7.8 | 0.00 | 0.12 | 0.12 | 49 | 999.0 |
| 20260504023535 | 88 | 94 | 4.3 | 5.2 | 0.00 | 0.12 | 0.12 | 52 | 999.0 |
| 20260504022535 | 85 | 206 | 2.6 | 4.3 | 0.00 | 0.12 | 0.12 | 58 | 999.0 |
| 20260504021535 | 84 | 185 | 5.2 | 7.0 | 0.00 | 0.12 | 0.12 | 58 | 999.0 |
| 20260504020535 | 86 | 154 | 4.3 | 7.0 | 0.00 | 0.12 | 0.12 | 58 | 998.0 |
| 20260504015535 | 85 | 179 | 4.3 | 5.2 | 0.00 | 0.12 | 0.12 | 59 | 999.0 |
| 20260504014535 | 85 | 228 | 7.0 | 8.7 | 0.00 | 0.12 | 0.12 | 59 | 999.0 |
| 20260504013535 | 86 | 221 | 4.3 | 6.1 | 0.00 | 0.12 | 0.12 | 59 | 999.0 |
| 20260504012534 | 85 | 177 | 4.3 | 7.8 | 0.00 | 0.12 | 0.12 | 59 | 999.0 |
| 20260504011534 | 84 | 181 | 5.2 | 7.0 | 0.00 | 0.12 | 0.12 | 60 | 999.0 |
| 20260504010534 | 84 | 231 | 5.2 | 6.1 | 0.00 | 0.12 | 0.12 | 63 | 999.0 |
| 20260504005534 | 84 | 213 | 6.1 | 8.7 | 0.00 | 0.12 | 0.12 | 63 | 999.0 |
| 20260504004534 | 84 | 199 | 6.1 | 10.4 | 0.00 | 0.12 | 0.12 | 66 | 999.0 |
| 20260504003534 | 81 | 133 | 4.3 | 6.1 | 0.00 | 0.12 | 0.12 | 72 | 999.0 |
| 20260504002534 | 83 | 170 | 5.2 | 10.4 | 0.00 | 0.12 | 0.12 | 71 | 999.0 |
| 20260504001534 | 83 | 232 | 2.6 | 5.2 | 0.00 | 0.12 | 0.12 | 72 | 999.0 |
| 20260504000534 | 82 | 164 | 5.2 | 6.1 | 0.00 | 0.12 | 0.12 | 74 | 999.0 |
| 20260503235534 | 80 | 210 | 5.2 | 5.2 | 0.00 | 0.12 | 0.12 | 79 | 999.0 |
| 20260503234534 | 77 | 204 | 5.2 | 11.3 | 0.00 | 0.12 | 0.12 | 86 | 999.0 |
| 20260503233801 | 75 | 161 | 6.1 | 7.0 | 0.00 | 0.12 | 0.12 | 88 | 999.0 |
| 20260503232800 | 75 | 234 | 5.2 | 7.0 | 0.00 | 0.12 | 0.12 | 90 | 999.0 |
| 20260503231801 | 74 | 202 | 7.0 | 11.3 | 0.00 | 0.12 | 0.12 | 91 | 999.0 |
| 20260503230801 | 75 | 90 | 6.1 | 7.8 | 0.00 | 0.12 | 0.12 | 91 | 999.0 |
| 20260503225800 | 74 | 222 | 5.2 | 7.0 | 0.00 | 0.12 | 0.12 | 92 | 999.0 |
| 20260503224800 | 74 | 112 | 4.3 | 7.0 | 0.00 | 0.12 | 0.12 | 94 | 999.0 |
| 20260503223800 | 73 | 231 | 4.3 | 6.1 | 0.00 | 0.12 | 0.12 | 95 | 999.0 |
| 20260503222800 | 73 | 248 | 4.3 | 2.6 | 0.00 | 0.12 | 0.12 | 95 | 998.0 |
| 20260503221800 | 73 | 201 | 4.3 | 7.8 | 0.00 | 0.12 | 0.12 | 96 | 998.0 |
| 20260503220800 | 73 | 184 | 6.1 | 7.8 | 0.00 | 0.12 | 0.12 | 98 | 999.0 |
| 20260503215800 | 72 | 203 | 5.2 | 7.0 | 0.00 | 0.12 | 0.12 | 98 | 999.0 |
| 20260503214800 | 72 | 257 | 4.3 | 6.1 | 0.00 | 0.12 | 0.12 | 98 | 999.0 |
| 20260503213800 | 72 | 190 | 5.2 | 5.2 | 0.00 | 0.12 | 0.12 | 98 | 998.0 |
| 20260503212800 | 71 | 276 | 6.1 | 10.4 | 0.00 | 0.12 | 0.12 | 98 | 999.0 |
| 20260503211800 | 71 | 158 | 5.2 | 11.3 | 0.04 | 0.12 | 0.12 | 98 | 999.0 |
| 20260503210800 | 71 | 42 | 5.2 | 4.3 | 0.08 | 0.12 | 0.12 | 98 | 999.0 |
| 20260503205759 | 71 | 220 | 7.8 | 8.7 | 0.08 | 0.12 | 0.12 | 98 | 999.0 |
| 20260503204759 | 71 | 111 | 7.0 | 10.4 | 0.08 | 0.12 | 0.12 | 98 | 999.0 |
| 20260503203801 | 71 | 257 | 5.2 | 10.4 | 0.08 | 0.12 | 0.12 | 98 | 999.0 |
| 20260503202801 | 70 | 207 | 7.0 | 12.2 | 0.08 | 0.12 | 0.12 | 98 | 999.0 |
| 20260503201801 | 70 | 177 | 6.1 | 7.8 | 0.08 | 0.08 | 0.08 | 98 | 999.0 |
| 20260503200801 | 70 | 221 | 4.3 | 4.3 | 0.04 | 0.04 | 0.04 | 98 | 1000.0 |
| 20260503195801 | 70 | 184 | 5.2 | 8.7 | 0.04 | 0.04 | 0.04 | 98 | 1000.0 |
| 20260503194801 | 69 | 221 | 4.3 | 4.3 | 0.04 | 0.04 | 0.04 | 98 | 1000.0 |
| 20260503193800 | 69 | 215 | 6.1 | 8.7 | 0.04 | 0.04 | 0.04 | 98 | 1000.0 |
| 20260503192800 | 69 | 189 | 6.1 | 7.8 | 0.04 | 0.04 | 0.04 | 98 | 1000.2 |
| 20260503191800 | 69 | 153 | 4.3 | 7.0 | 0.00 | 0.00 | 0.00 | 98 | 1001.0 |
| 20260503190800 | 68 | 172 | 2.6 | 6.1 | 0.00 | 0.00 | 0.00 | 98 | 1001.0 |